TimeCDT,TemperatureF,Dew PointF,Humidity,Sea Level PressureIn,VisibilityMPH,Wind Direction,Wind SpeedMPH,Gust SpeedMPH,PrecipitationIn,Events,Conditions,WindDirDegrees,DateUTC
12:15 AM,57.9,51.3,78,30.12,10.0,NNW,3.5,-,N/A,,Clear,330,2013-07-01 05:15:00
12:35 AM,58.1,51.8,80,30.11,10.0,NW,3.5,-,N/A,,Clear,320,2013-07-01 05:35:00
12:55 AM,58.1,51.8,80,30.11,10.0,NNW,3.5,-,N/A,,Clear,330,2013-07-01 05:55:00
1:15 AM,57.2,51.3,81,30.12,10.0,NW,3.5,-,N/A,,Clear,320,2013-07-01 06:15:00
1:35 AM,57.7,51.6,80,30.12,10.0,NNW,3.5,-,N/A,,Clear,330,2013-07-01 06:35:00
1:55 AM,57.4,51.3,80,30.12,10.0,NW,3.5,-,N/A,,Clear,310,2013-07-01 06:55:00
2:15 AM,57.2,51.6,82,30.12,10.0,WNW,3.5,-,N/A,,Clear,290,2013-07-01 07:15:00
2:35 AM,56.8,51.3,82,30.12,10.0,WNW,3.5,-,N/A,,Clear,300,2013-07-01 07:35:00
2:55 AM,56.8,52.0,84,30.12,10.0,WNW,3.5,-,N/A,,Clear,300,2013-07-01 07:55:00
3:15 AM,56.3,51.4,84,30.12,10.0,NW,4.6,-,N/A,,Clear,320,2013-07-01 08:15:00
3:35 AM,56.5,51.4,83,30.12,10.0,NW,3.5,-,N/A,,Clear,310,2013-07-01 08:35:00
3:55 AM,56.3,51.4,84,30.12,10.0,WNW,4.6,-,N/A,,Clear,300,2013-07-01 08:55:00
4:15 AM,56.7,51.3,82,30.12,10.0,NW,4.6,-,N/A,,Clear,310,2013-07-01 09:15:00
4:35 AM,56.3,51.3,83,30.12,10.0,NW,4.6,-,N/A,,Clear,310,2013-07-01 09:35:00
4:55 AM,55.8,51.3,85,30.13,10.0,NW,3.5,-,N/A,,Clear,320,2013-07-01 09:55:00
5:15 AM,56.1,51.1,83,30.13,10.0,NW,4.6,-,N/A,,Clear,320,2013-07-01 10:15:00
5:35 AM,55.6,50.9,84,30.14,10.0,NNW,3.5,-,N/A,,Clear,330,2013-07-01 10:35:00
5:55 AM,56.8,51.1,81,30.14,10.0,NW,4.6,-,N/A,,Clear,320,2013-07-01 10:55:00
6:15 AM,57.2,51.8,82,30.14,10.0,NNW,4.6,-,N/A,,Clear,330,2013-07-01 11:15:00
6:35 AM,57.6,52.3,83,30.15,10.0,NNW,3.5,-,N/A,,Clear,330,2013-07-01 11:35:00
6:55 AM,58.3,53.6,84,30.15,10.0,Calm,Calm,-,N/A,,Clear,0,2013-07-01 11:55:00
7:15 AM,60.6,54.5,80,30.15,10.0,NW,3.5,-,N/A,,Clear,310,2013-07-01 12:15:00
7:35 AM,63.0,55.2,76,30.15,10.0,NNW,3.5,-,N/A,,Clear,330,2013-07-01 12:35:00
7:55 AM,65.5,55.4,70,30.16,10.0,NNW,4.6,-,N/A,,Clear,340,2013-07-01 12:55:00
8:15 AM,67.6,54.9,64,30.16,10.0,North,8.1,-,N/A,,Clear,360,2013-07-01 13:15:00
8:35 AM,68.9,54.1,59,30.17,10.0,NNE,6.9,-,N/A,,Clear,30,2013-07-01 13:35:00
8:55 AM,70.3,53.2,55,30.17,10.0,NNE,8.1,-,N/A,,Clear,20,2013-07-01 13:55:00
9:15 AM,70.9,53.8,55,30.17,10.0,NNE,9.2,-,N/A,,Clear,30,2013-07-01 14:15:00
9:35 AM,71.6,54.1,54,30.17,10.0,North,6.9,-,N/A,,Clear,10,2013-07-01 14:35:00
9:55 AM,72.7,54.9,53,30.17,10.0,NNE,9.2,-,N/A,,Clear,20,2013-07-01 14:55:00
10:15 AM,73.6,54.1,50,30.17,10.0,NNE,8.1,-,N/A,,Clear,30,2013-07-01 15:15:00
10:35 AM,74.5,55.6,52,30.17,10.0,NE,6.9,-,N/A,,Clear,40,2013-07-01 15:35:00
10:55 AM,75.2,54.1,48,30.17,10.0,NNE,6.9,-,N/A,,Clear,20,2013-07-01 15:55:00
11:15 AM,76.3,53.6,45,30.17,10.0,NNE,8.1,-,N/A,,Clear,20,2013-07-01 16:15:00
11:35 AM,77.0,54.5,46,30.17,10.0,NE,11.5,16.1,N/A,,Clear,50,2013-07-01 16:35:00
11:55 AM,76.6,54.7,46,30.17,10.0,NNE,11.5,-,N/A,,Clear,30,2013-07-01 16:55:00
12:15 PM,76.8,52.9,43,30.17,10.0,NNE,10.4,-,N/A,,Clear,20,2013-07-01 17:15:00
12:35 PM,77.5,51.4,40,30.17,10.0,NNE,10.4,17.3,N/A,,Clear,30,2013-07-01 17:35:00
12:55 PM,78.1,53.1,42,30.16,10.0,NE,9.2,-,N/A,,Clear,40,2013-07-01 17:55:00
1:15 PM,77.9,50.5,38,30.16,10.0,NE,10.4,16.1,N/A,,Clear,40,2013-07-01 18:15:00
1:35 PM,78.6,51.3,38,30.16,10.0,NNE,11.5,17.3,N/A,,Clear,30,2013-07-01 18:35:00
1:55 PM,79.2,51.6,38,30.16,10.0,NNE,12.7,16.1,N/A,,Clear,20,2013-07-01 18:55:00
2:15 PM,79.0,49.5,35,30.16,10.0,NE,12.7,20.7,N/A,,Clear,50,2013-07-01 19:15:00
2:35 PM,79.5,49.1,34,30.16,10.0,NNE,11.5,17.3,N/A,,Clear,30,2013-07-01 19:35:00
2:55 PM,79.7,49.5,35,30.15,10.0,NE,11.5,17.3,N/A,,Clear,50,2013-07-01 19:55:00
3:15 PM,79.9,48.2,33,30.15,10.0,NNE,10.4,16.1,N/A,,Clear,30,2013-07-01 20:15:00
3:35 PM,80.1,48.9,34,30.15,10.0,ENE,13.8,18.4,N/A,,Clear,60,2013-07-01 20:35:00
3:55 PM,80.4,49.1,33,30.15,10.0,ENE,15.0,19.6,N/A,,Clear,60,2013-07-01 20:55:00
4:15 PM,80.2,49.3,34,30.15,10.0,NNE,10.4,17.3,N/A,,Clear,30,2013-07-01 21:15:00
4:35 PM,80.2,47.7,32,30.15,10.0,NE,11.5,20.7,N/A,,Clear,40,2013-07-01 21:35:00
4:55 PM,79.9,48.4,33,30.14,10.0,NNE,11.5,19.6,N/A,,Clear,20,2013-07-01 21:55:00
5:15 PM,79.7,47.7,32,30.14,10.0,NE,11.5,21.9,N/A,,Clear,40,2013-07-01 22:15:00
5:35 PM,79.9,48.2,33,30.14,10.0,NE,10.4,18.4,N/A,,Scattered Clouds,50,2013-07-01 22:35:00
5:55 PM,80.2,49.5,34,30.14,10.0,ENE,12.7,17.3,N/A,,Scattered Clouds,60,2013-07-01 22:55:00
6:15 PM,79.3,48.4,34,30.14,10.0,ENE,13.8,18.4,N/A,,Scattered Clouds,70,2013-07-01 23:15:00
6:35 PM,78.8,49.1,35,30.14,10.0,ENE,11.5,16.1,N/A,,Clear,70,2013-07-01 23:35:00
6:55 PM,78.1,48.4,35,30.14,10.0,East,11.5,17.3,N/A,,Clear,80,2013-07-01 23:55:00
7:15 PM,77.9,48.4,35,30.14,10.0,ENE,12.7,17.3,N/A,,Clear,70,2013-07-02 00:15:00
7:35 PM,77.0,49.6,38,30.14,10.0,ENE,10.4,-,N/A,,Clear,70,2013-07-02 00:35:00
8:15 PM,75.0,50.2,42,30.14,10.0,ENE,6.9,-,N/A,,Clear,70,2013-07-02 01:15:00
8:35 PM,73.4,51.4,46,30.14,10.0,ENE,3.5,-,N/A,,Clear,60,2013-07-02 01:35:00
8:55 PM,72.1,51.8,49,30.14,10.0,Calm,Calm,-,N/A,,Clear,0,2013-07-02 01:55:00
9:15 PM,70.9,52.3,52,30.14,10.0,Calm,Calm,-,N/A,,Clear,0,2013-07-02 02:15:00
9:35 PM,69.4,53.4,57,30.15,10.0,Calm,Calm,-,N/A,,Clear,0,2013-07-02 02:35:00
9:55 PM,68.4,54.0,60,30.15,10.0,Calm,Calm,-,N/A,,Clear,0,2013-07-02 02:55:00
10:15 PM,65.3,55.6,71,30.16,10.0,Calm,Calm,-,N/A,,Clear,0,2013-07-02 03:15:00
10:35 PM,66.2,54.7,66,30.15,10.0,Calm,Calm,-,N/A,,Clear,0,2013-07-02 03:35:00
10:55 PM,66.7,54.0,63,30.16,10.0,Calm,Calm,-,N/A,,Clear,0,2013-07-02 03:55:00
11:15 PM,67.5,53.6,61,30.16,10.0,Calm,Calm,-,N/A,,Clear,0,2013-07-02 04:15:00
11:35 PM,64.0,55.2,73,30.16,10.0,Calm,Calm,-,N/A,,Clear,0,2013-07-02 04:35:00
11:55 PM,63.7,55.4,74,30.16,10.0,Calm,Calm,-,N/A,,Clear,0,2013-07-02 04:55:00